Home > Weather > Buenos Aires > Past weeks

Flag for Argentina Weather for the Past 2 Weeks in Buenos Aires, Argentina

Now
75 °F

Passing clouds.


Feels Like: 75 °F
Forecast: 73 / 90 °F
Wind: 10 mph from Southwest

Location: Buenos Aires Airport

Current Time: Feb 9, 2016 at 3:10:04 AM

Latest Report: Feb 9, 2016 at 2:00 AM


Visibility: N/A

Pressure: 29.83 "Hg

Humidity: 83%

Dew point: 70 °F

Location of Buenos AiresLocation

Historic Weather in Buenos Aires — Graph

°F

Buenos Aires Temperature Yesterday

Maximum temperature yesterday: 81 °F (at 1:00 PM)
Minimum temperature yesterday: 75 °F (at 5:00 AM)
Average temperature yesterday: 78 °F

High & Low Weather Summary for the Past Weeks

 TemperatureHumidityPressure
High88 °F (Jan 25, 4:00 PM)94% (Feb 7, 9:00 PM)30.18 "Hg (Feb 7, 9:00 PM)
Low63 °F (Feb 1, 6:00 AM)24% (Jan 25, 6:00 PM)29.62 "Hg (Jan 25, 3:00 AM)
Average77 °F64%29.93 "Hg
* Reported Jan 25 2:00 AM — Feb 9 2:00 AM, Buenos Aires, Weather by CustomWeather, © 2016

Note: Actual official high and low records may vary slightly from our data, if they occured in-between our weather recording intervals... More about our weather records

Advertising

Buenos Aires Weather History for the Previous 24 Hours

 ConditionsComfort  
Time TempWeatherWind HumidityBarometerVisibility
2:00 AM
Tue, Feb 9
75 °FPassing clouds.10 mph83%29.83 "HgN/A
1:00 AM75 °FClear.6 mph83%29.83 "Hg10 mi
12:00 AM75 °FClear.6 mph83%29.80 "Hg10 mi
11:00 PM
Mon, Feb 8
75 °FPassing clouds.6 mph83%29.80 "HgN/A
10:00 PM75 °FPassing clouds.5 mph83%29.80 "HgN/A
9:00 PM75 °FPassing clouds.7 mph83%29.77 "HgN/A
8:00 PM75 °FPassing clouds.8 mph83%29.77 "HgN/A
7:00 PM77 °FPartly cloudy.14 mph83%29.74 "HgN/A
6:00 PM81 °FPartly sunny.12 mph66%29.74 "HgN/A
5:00 PM81 °FPartly sunny.8 mph74%29.74 "HgN/A
4:00 PM81 °FBroken clouds.9 mph74%29.77 "HgN/A
3:00 PM79 °FBroken clouds.8 mph79%29.80 "HgN/A
2:00 PM81 °FBroken clouds.3 mph74%29.80 "HgN/A
1:00 PM81 °FMore clouds than sun.3 mph74%29.80 "HgN/A
12:00 PM77 °FMore clouds than sun.8 mph83%29.77 "HgN/A
11:00 AM79 °FOvercast.7 mph79%29.80 "HgN/A
10:00 AM79 °FOvercast.6 mph74%29.80 "HgN/A
9:00 AM79 °FOvercast.7 mph79%29.83 "HgN/A
8:00 AM77 °FMore clouds than sun.6 mph83%29.80 "HgN/A
7:00 AM77 °FMore clouds than sun.6 mph83%29.80 "HgN/A
6:00 AM77 °FScattered clouds.5 mph83%29.80 "HgN/A
5:00 AM75 °FPartly cloudy.3 mph89%29.77 "HgN/A
4:00 AM77 °FPartly cloudy.7 mph89%29.77 "HgN/A
3:00 AM77 °FClear.2 mph89%29.74 "Hg10 mi
Weather by CustomWeather, © 2016

See weather overviewHow to use our weather pages